When you browse on this site, cookies collect data to enhance your experience and personalize the content and advertising you see.
Visit our Privacy Policy to learn more. By continuing to use the site, you agree to this use of cookies and data.
  • în România
  • Lista ţărilor
  • Pe 7 zile
  • Temperatura apei
  • Hartă satelitară
  • Meteo pe hartă
  • Widget-uri
  • user-avatar
    Intrare

    Meteo pe oră la Seoni

    Astăzi, 17 Iulie, Miercuri

    Timp Temperatura Precipitaţii Vânt Presiune Umiditate
    00:00 +27°C° 0 mm 3 m/s 702 mmHg 75%
    01:00 +27°C° 0 mm 3 m/s 701 mmHg 76%
    02:00 +27°C° 0 mm 3 m/s 701 mmHg 76%
    03:00 +27°C° 0 mm 3 m/s 701 mmHg 77%
    04:00 +27°C° 0 mm 3 m/s 701 mmHg 78%
    05:00 +27°C° 0 mm 4 m/s 702 mmHg 79%
    06:00 +28°C° 0 mm 4 m/s 702 mmHg 76%
    07:00 +29°C° 0 mm 5 m/s 702 mmHg 72%
    08:00 +30°C° 0 mm 6 m/s 702 mmHg 69%
    09:00 +33°C° 0 mm 5 m/s 702 mmHg 63%
    10:00 +34°C° 0 mm 5 m/s 703 mmHg 58%
    11:00 +35°C° 0 mm 4 m/s 703 mmHg 52%
    12:00 +35°C° 0 mm 3 m/s 702 mmHg 52%
    13:00 +35°C° 0 mm 3 m/s 702 mmHg 53%
    14:00 +35°C° 0 mm 2 m/s 701 mmHg 53%
    15:00 +35°C° 0 mm 2 m/s 701 mmHg 54%
    16:00 +35°C° 0 mm 2 m/s 701 mmHg 55%
    17:00 +34°C° 0 mm 1 m/s 700 mmHg 56%
    18:00 +34°C° 0 mm 2 m/s 701 mmHg 58%
    19:00 +31°C° 0 mm 2 m/s 701 mmHg 61%
    20:00 +30°C° 0 mm 2 m/s 701 mmHg 63%
    21:00 +30°C° 0 mm 2 m/s 701 mmHg 65%
    22:00 +29°C° 0 mm 2 m/s 701 mmHg 68%
    23:00 +29°C° 0 mm 3 m/s 701 mmHg 70%

    Mâine, 18 Iulie, Joi

    Timp Temperatura Precipitaţii Vânt Presiune Umiditate
    00:00 +29°C° 0 mm 3 m/s 701 mmHg 71%
    01:00 +28°C° 0 mm 3 m/s 700 mmHg 71%
    02:00 +28°C° 0 mm 3 m/s 700 mmHg 72%
    03:00 +28°C° 0 mm 4 m/s 700 mmHg 72%
    04:00 +28°C° 0 mm 4 m/s 700 mmHg 72%
    05:00 +27°C° 0 mm 4 m/s 700 mmHg 72%
    06:00 +28°C° 0 mm 5 m/s 701 mmHg 70%
    07:00 +30°C° 0 mm 5 m/s 701 mmHg 68%
    08:00 +32°C° 0 mm 6 m/s 702 mmHg 65%
    09:00 +33°C° 0.8 mm 5 m/s 702 mmHg 62%
    10:00 +34°C° 0.8 mm 5 m/s 702 mmHg 58%
    11:00 +35°C° 0.8 mm 4 m/s 702 mmHg 55%
    12:00 +35°C° 0.2 mm 4 m/s 701 mmHg 53%
    13:00 +35°C° 0.2 mm 3 m/s 701 mmHg 51%
    14:00 +36°C° 0.2 mm 2 m/s 700 mmHg 50%
    15:00 +35°C° 0.2 mm 2 m/s 700 mmHg 54%
    16:00 +34°C° 0.2 mm 2 m/s 699 mmHg 58%
    17:00 +32°C° 0.2 mm 2 m/s 699 mmHg 62%
    18:00 +31°C° 0.5 mm 1 m/s 699 mmHg 65%
    19:00 +30°C° 0.5 mm 1 m/s 700 mmHg 68%
    20:00 +30°C° 0.5 mm 1 m/s 700 mmHg 71%
    21:00 +29°C° 0.6 mm 1 m/s 700 mmHg 74%
    22:00 +28°C° 0.6 mm 1 m/s 700 mmHg 77%
    23:00 +28°C° 0.6 mm 1 m/s 700 mmHg 79%

    Poimâine, 19 Iulie, Vineri

    Timp Temperatura Precipitaţii Vânt Presiune Umiditate
    00:00 +28°C° 0.1 mm 1 m/s 700 mmHg 78%
    01:00 +28°C° 0.1 mm 1 m/s 700 mmHg 77%
    02:00 +28°C° 0.1 mm 1 m/s 699 mmHg 77%
    03:00 +28°C° 0.3 mm 1 m/s 700 mmHg 78%
    04:00 +27°C° 0.3 mm 2 m/s 700 mmHg 80%
    05:00 +27°C° 0.3 mm 2 m/s 700 mmHg 82%
    06:00 +27°C° 0.2 mm 2 m/s 700 mmHg 80%
    07:00 +28°C° 0.2 mm 2 m/s 701 mmHg 78%
    08:00 +28°C° 0.2 mm 2 m/s 701 mmHg 77%
    09:00 +30°C° 0 mm 3 m/s 701 mmHg 68%
    10:00 +33°C° 0 mm 3 m/s 701 mmHg 60%
    11:00 +35°C° 0 mm 4 m/s 701 mmHg 51%
    12:00 +36°C° 0 mm 4 m/s 701 mmHg 50%
    13:00 +36°C° 0 mm 3 m/s 700 mmHg 48%
    14:00 +37°C° 0 mm 3 m/s 700 mmHg 47%
    15:00 +36°C° 0 mm 3 m/s 700 mmHg 48%
    16:00 +36°C° 0 mm 2 m/s 699 mmHg 49%
    17:00 +36°C° 0 mm 2 m/s 699 mmHg 51%
    18:00 +35°C° 0 mm 2 m/s 699 mmHg 55%
    19:00 +32°C° 0 mm 1 m/s 699 mmHg 59%
    20:00 +31°C° 0 mm 1 m/s 699 mmHg 63%
    21:00 +30°C° 0.8 mm 1 m/s 700 mmHg 66%
    22:00 +30°C° 0.8 mm 1 m/s 700 mmHg 70%
    23:00 +29°C° 0.8 mm 1 m/s 700 mmHg 73%

    20 Iulie, Sâmbătă

    Timp Temperatura Precipitaţii Vânt Presiune Umiditate
    00:00 +29°C° 0.2 mm 1 m/s 699 mmHg 74%
    01:00 +29°C° 0.2 mm 1 m/s 699 mmHg 74%
    02:00 +28°C° 0.2 mm 1 m/s 699 mmHg 74%
    03:00 +28°C° 0.2 mm 1 m/s 699 mmHg 74%
    04:00 +28°C° 0.2 mm 1 m/s 699 mmHg 74%
    05:00 +28°C° 0.2 mm 1 m/s 699 mmHg 75%
    06:00 +29°C° 1 mm 1 m/s 700 mmHg 72%
    07:00 +30°C° 1 mm 1 m/s 700 mmHg 69%
    08:00 +31°C° 1 mm 1 m/s 701 mmHg 66%
    09:00 +32°C° 2.6 mm 1 m/s 701 mmHg 63%
    10:00 +33°C° 2.6 mm 1 m/s 701 mmHg 61%
    11:00 +33°C° 2.6 mm 1 m/s 701 mmHg 58%
    12:00 +34°C° 1.8 mm 1 m/s 700 mmHg 57%
    13:00 +34°C° 1.8 mm 1 m/s 700 mmHg 56%
    14:00 +35°C° 1.8 mm 1 m/s 699 mmHg 54%
    15:00 +35°C° 0 mm 1 m/s 699 mmHg 55%
    16:00 +35°C° 0 mm 1 m/s 699 mmHg 56%
    17:00 +35°C° 0 mm 1 m/s 699 mmHg 57%
    18:00 +33°C° 0.2 mm 1 m/s 699 mmHg 61%
    19:00 +32°C° 0.2 mm 1 m/s 699 mmHg 65%
    20:00 +29°C° 0.2 mm 0 m/s 699 mmHg 70%
    21:00 +28°C° 0.3 mm 0 m/s 699 mmHg 71%
    22:00 +28°C° 0.3 mm 0 m/s 700 mmHg 72%
    23:00 +28°C° 0.3 mm 0 m/s 700 mmHg 74%

    21 Iulie, Duminică

    Timp Temperatura Precipitaţii Vânt Presiune Umiditate
    00:00 +27°C° 0.3 mm 0 m/s 699 mmHg 75%
    01:00 +27°C° 0.3 mm 0 m/s 699 mmHg 75%
    02:00 +27°C° 0.3 mm 0 m/s 699 mmHg 76%
    03:00 +27°C° 0.1 mm 0 m/s 699 mmHg 78%
    04:00 +26°C° 0.1 mm 0 m/s 699 mmHg 79%
    05:00 +26°C° 0.1 mm 0 m/s 699 mmHg 80%
    06:00 +27°C° 0.5 mm 0 m/s 699 mmHg 77%
    07:00 +28°C° 0.5 mm 0 m/s 700 mmHg 73%
    08:00 +29°C° 0.5 mm 0 m/s 700 mmHg 69%
    09:00 +30°C° 1.2 mm 0 m/s 700 mmHg 65%
    10:00 +31°C° 1.2 mm 0 m/s 700 mmHg 61%
    11:00 +33°C° 1.2 mm 0 m/s 700 mmHg 56%
    12:00 +35°C° 0.7 mm 1 m/s 700 mmHg 54%
    13:00 +35°C° 0.7 mm 1 m/s 699 mmHg 52%
    14:00 +36°C° 0.7 mm 1 m/s 698 mmHg 50%
    15:00 +35°C° 0.3 mm 1 m/s 698 mmHg 54%
    16:00 +34°C° 0.3 mm 1 m/s 698 mmHg 58%
    17:00 +34°C° 0.3 mm 2 m/s 698 mmHg 61%
    18:00 +32°C° 0.6 mm 2 m/s 698 mmHg 66%
    19:00 +31°C° 0.6 mm 2 m/s 698 mmHg 70%
    20:00 +30°C° 0.6 mm 2 m/s 699 mmHg 75%
    21:00 +29°C° 1.2 mm 2 m/s 699 mmHg 77%
    22:00 +29°C° 1.2 mm 2 m/s 699 mmHg 80%
    23:00 +28°C° 1.2 mm 1 m/s 699 mmHg 83%

    22 Iulie, Luni

    Timp Temperatura Precipitaţii Vânt Presiune Umiditate
    00:00 +28°C° 0.1 mm 1 m/s 699 mmHg 83%
    01:00 +28°C° 0.1 mm 1 m/s 698 mmHg 84%
    02:00 +28°C° 0.1 mm 1 m/s 698 mmHg 84%
    03:00 +28°C° 1.7 mm 1 m/s 698 mmHg 85%
    04:00 +28°C° 1.7 mm 1 m/s 698 mmHg 86%
    05:00 +28°C° 1.7 mm 1 m/s 698 mmHg 86%
    06:00 +28°C° 0.2 mm 1 m/s 699 mmHg 82%
    07:00 +29°C° 0.2 mm 1 m/s 699 mmHg 79%
    08:00 +30°C° 0.2 mm 1 m/s 699 mmHg 75%
    09:00 +31°C° 0.6 mm 1 m/s 699 mmHg 69%
    10:00 +33°C° 0.6 mm 1 m/s 700 mmHg 63%
    11:00 +34°C° 0.6 mm 1 m/s 700 mmHg 58%
    12:00 +34°C° 2.7 mm 2 m/s 699 mmHg 63%
    13:00 +32°C° 2.7 mm 2 m/s 698 mmHg 68%
    14:00 +31°C° 2.7 mm 3 m/s 697 mmHg 73%
    15:00 +31°C° 0.2 mm 3 m/s 697 mmHg 75%
    16:00 +30°C° 0.2 mm 2 m/s 697 mmHg 77%
    17:00 +30°C° 0.2 mm 2 m/s 696 mmHg 78%
    18:00 +30°C° 0.4 mm 1 m/s 697 mmHg 78%
    19:00 +29°C° 0.4 mm 1 m/s 697 mmHg 79%
    20:00 +29°C° 0.4 mm 1 m/s 698 mmHg 79%
    21:00 +29°C° 0.5 mm 1 m/s 698 mmHg 80%
    22:00 +28°C° 0.5 mm 1 m/s 698 mmHg 81%
    23:00 +28°C° 0.5 mm 2 m/s 698 mmHg 82%
    Arată mai mult